SL-14 DEB, 45290

Orbit data source: Space-Track

SL-14 DEB, 45290 is space debris in LEO originally from a launch on Thu, 15 Aug 1991 UTC launched from the Plesetsk Missile And Space Complex (PKMTR). Debris objects in space refer to the collection of defunct objects orbiting the Earth. Examples of debris include non-operational satellites, rocket bodies, and fragments generated from explosions, collisions, or faulty payload assembly.

Loading next visibility...
Identifier
45290, 1991-056AC
Orbit
LEO
Last TLE update
13 hours ago
Origin
Manufacturer
Unknown
Mission
Spacecraft
Bus & Motor
Unknown
Mass
Unknown
Launch date (UTC)
1991-08-15 (34 years ago)
Launch vehicle
Unknown
Launch site
Plesetsk Missile And Space Complex (PKMTR)
Object type
Payload
Rocket body
Debris
Shape & HBR
Unknown
Radar Cross Section
Small (<0.1 m²)

Expand to show TLE details & history

TLE from 13 hours ago
0 SL-14 DEB
1 45290U 91056AC  25183.72812404  .00002380  00000-0  41629-2 0  9995
2 45290  82.6343 356.8664 0107419 103.8775 257.4339 13.40646586261565
Epoch: 2025-07-02T17:28Z
TLE epoch observation values (Epoch: 2025-07-02T17:28:29.917Z)
Latitude
0.00005°
Longitude
173.73669°
Altitude
1,128.032 km
Speed
7.28 km/s
True Right ascension
23h 47m 27s
True Declination
0° 00' 00"
Sunlit
Object was in daylight at epoch
Visualization orbit readout
Latitude
77.55973°
Longitude
-150.99728°
Altitude
1,045.614 km
Speed
7.372 km/s
Apparent Right ascension
05h 14m 59s
Apparent Declination
28° 18' 47"
Sunlit
Object is in daylight
Visualization observer readout
Local Sidereal Time
18:10:02
Azimuth
12.928° NNE
Elevation
-20.58°
Doppler factor
1
Orbital elements
Apogee altitude
1,184.453 km
Perigee altitude
1,023.706 km
Semi-major axis
7,482.217 km
Eccentricity
0.01074
Inclination
82.6343°
RAAN
356.8664°
Arg. of periapsis
103.8775°
True anomaly
Unknown
Mean anomaly
257.4339°
Eccentric anomaly
Unknown
Mean motion
3.3535 °/min
Orbital period
107.35 mins
BSTAR
0.0041629
Loading maneuver chart data...
Loading SW <> Apogee altitude chart data...
Loading historical data...
Loading historical data...
Loading historical data...
Loading historical data...
Loading historical data...
Loading historical data...
Loading historical data...

SL-14 DEB Visibility forecast

Observer location: undefined°, undefined°

Span
Click to sort rows by Start time (UTC) header in descending order
Start Az.
Max El. time (UTC)
Max El. Az.
Max El.
End time (UTC)
End Az.
11 mins2025-07-03 11:29:22.572Z152.837° SSE2025-07-03 11:35:22.572Z81.488° E32.047°2025-07-03 11:40:22.572Z25.73° NE
10 mins2025-07-03 13:18:22.572Z229.121° WSW2025-07-03 13:23:22.572Z287.714° WNW28.3°2025-07-03 13:28:22.572Z344.826° N
10 mins2025-07-03 22:44:22.572Z13.917° NNE2025-07-03 22:48:22.572Z69.483° E34.542°2025-07-03 22:54:22.572Z145.993° SSE
9 mins2025-07-04 00:32:22.572Z323.176° NNW2025-07-04 00:36:22.572Z277.925° WNW25.016°2025-07-04 00:41:22.572Z222.037° SW
|